CDT,Max TemperatureF,Mean TemperatureF,Min TemperatureF,Max Dew PointF,MeanDew PointF,Min DewpointF,Max Humidity, Mean Humidity, Min Humidity, Max Sea Level PressureIn, Mean Sea Level PressureIn, Min Sea Level PressureIn, Max VisibilityMiles, Mean VisibilityMiles, Min VisibilityMiles, Max Wind SpeedMPH, Mean Wind SpeedMPH, Max Gust SpeedMPH,PrecipitationIn, CloudCover, Events, WindDirDegrees
2012-10-1,69,56,43,46,43,41,96,67,37,29.91,29.87,29.82,10,10,8,10,3,12,0.00,0,,103
2012-10-2,74,59,44,49,45,44,100,68,35,29.92,29.88,29.84,10,10,6,12,4,13,0.00,0,,25
2012-10-3,75,59,42,50,44,41,92,63,33,29.96,29.93,29.89,10,10,7,13,5,16,0.00,1,,139
2012-10-4,56,49,42,51,40,31,89,68,46,30.21,30.08,29.94,10,10,8,24,13,31,T,3,Rain,274
2012-10-5,46,38,29,30,24,15,92,63,34,30.26,30.21,30.16,10,10,9,21,11,25,0.00,0,,289
2012-10-6,42,33,23,27,25,20,88,70,51,30.27,30.24,30.19,10,10,10,21,10,25,0.00,5,,312
2012-10-7,50,39,27,25,21,15,85,57,28,30.26,30.19,30.10,10,10,10,15,6,28,0.00,3,,260
2012-10-8,62,46,30,33,29,21,78,55,32,30.09,29.97,29.87,10,10,10,30,16,40,0.00,1,,191
2012-10-9,60,47,34,42,37,32,100,72,44,30.03,29.89,29.83,10,10,4,26,12,32,0.12,4,Rain,250
2012-10-10,53,40,27,33,27,24,100,68,35,30.20,30.13,30.04,10,10,10,22,9,28,0.00,1,,257
2012-10-11,67,50,33,36,32,26,70,51,32,30.30,30.11,30.05,10,10,10,22,14,28,0.00,2,,260
2012-10-12,54,43,31,41,25,14,89,55,20,30.45,30.32,30.12,10,10,7,17,10,22,0.24,2,Rain,98
2012-10-13,65,55,45,64,54,41,100,97,93,30.13,29.87,29.69,10,6,2,21,11,24,0.61,8,Rain-Thunderstorm,174
2012-10-14,62,51,39,63,54,40,100,90,80,29.90,29.63,29.44,10,6,2,29,10,36,1.18,7,Rain,208
2012-10-15,61,48,34,44,41,35,100,73,46,30.00,29.94,29.89,10,10,7,9,4,10,0.00,0,,262
2012-10-16,73,60,46,52,46,41,82,66,49,29.87,29.60,29.42,10,10,10,23,11,28,T,0,Rain,174
2012-10-17,64,52,40,54,49,39,100,86,72,29.45,29.39,29.35,10,10,5,24,12,31,0.09,5,Rain,236
2012-10-18,44,43,41,42,40,36,100,85,70,29.39,29.36,29.34,10,8,2,28,14,33,0.17,8,Rain,245
2012-10-19,50,44,37,46,43,37,100,90,80,29.73,29.57,29.36,10,7,0,17,10,24,0.24,7,Fog-Rain,303
2012-10-20,55,47,39,43,41,39,100,80,59,29.90,29.82,29.72,10,7,0,10,4,15,0.00,5,Fog,306
2012-10-21,69,53,36,54,46,37,100,77,53,29.91,29.88,29.84,10,9,4,14,8,20,0.00,0,,128
2012-10-22,70,63,55,64,61,54,100,89,78,29.89,29.84,29.81,10,5,0,13,8,15,0.45,6,Fog-Rain-Thunderstorm,117
2012-10-23,73,67,60,64,62,60,100,84,68,29.85,29.80,29.74,10,7,2,23,10,30,0.12,6,Rain,152
2012-10-24,79,71,62,66,64,63,100,82,64,29.83,29.77,29.68,10,9,6,24,12,29,0.07,4,,172
2012-10-25,68,50,32,62,45,28,100,88,75,30.20,29.84,29.59,10,9,2,31,19,40,0.15,7,Rain,282
2012-10-26,43,35,26,29,27,25,100,77,53,30.41,30.36,30.21,10,10,10,23,11,28,0.00,2,,317
2012-10-27,42,32,22,28,24,22,96,73,50,30.42,30.36,30.31,10,10,10,14,5,16,0.00,1,,325
2012-10-28,46,34,21,27,23,20,100,69,38,30.38,30.34,30.30,10,9,5,10,4,14,0.00,0,,12
2012-10-29,48,36,24,32,25,22,92,63,34,30.38,30.30,30.20,10,8,5,12,3,14,0.00,2,,43
2012-10-30,51,38,25,27,23,17,85,57,28,30.20,30.06,29.95,10,9,6,24,12,31,0.00,0,,338
2012-10-31,48,35,22,24,21,18,96,64,31,30.01,29.98,29.94,10,10,10,20,10,25,0.00,0,,319